Flag for Germany Weather past 2 weeks in Burgdorf, Lower Saxony, Germany

Now
66 °F

Fog.


Feels Like: 66 °F
Forecast: 55 / 70 °F
Wind: 1 mph from North

Location: Celle Airport

Current Time: Aug 31, 2015 at 9:35:56 AM

Latest Report: Aug 31, 2015 at 8:20 AM


Visibility: 0 mi

Pressure: 29.95 "Hg

Humidity: 94%

Dew point: 64 °F

Location of BurgdorfLocation

Historic Weather in Burgdorf — Graph

°F

Burgdorf temperature yesterday

Maximum temperature yesterday: 86 °F (at 6:20 PM)
Minimum temperature yesterday: 61 °F (at 2:20 AM)
Average temperature yesterday: 69 °F

Past Weeks' High & Low Weather Summary

 TemperatureHumidityPressure
High86 °F (Aug 30, 6:20 PM)100% (Aug 16, 8:20 AM)30.30 "Hg (Aug 16, 8:20 AM)
Low48 °F (Aug 29, 5:20 AM)32% (Aug 21, 4:20 PM)29.59 "Hg (Aug 24, 7:20 PM)
Average65 °F77%29.99 "Hg
* Reported Aug 16 8:20 AM — Aug 31 8:20 AM, Burgdorf, Weather by CustomWeather, © 2015

Note: Actual official high and low records may vary slightly from our data, if they occured in-between our weather recording intervals... More about our weather records

Advertising

Burgdorf weather history for previous 24 hours

 ConditionsComfort  
Time TempWeatherWind HumidityBarometerVisibility
8:20 AM
Mon, Aug 31
66 °FFog.1 mph94%29.95 "Hg0 mi
7:20 AM64 °FFog.3 mph100%29.95 "Hg0 mi
6:20 AM64 °FFog.2 mph100%29.95 "Hg1 mi
5:20 AM64 °FPartly cloudy.2 mph100%29.95 "Hg5 mi
4:20 AM66 °FPartly cloudy.2 mph100%29.98 "Hg6 mi
3:20 AM66 °FPassing clouds.5 mph100%29.98 "HgN/A
2:20 AM66 °FPassing clouds.2 mph100%29.98 "HgN/A
1:20 AM68 °FPassing clouds.1 mph94%29.98 "HgN/A
12:20 AM68 °FPassing clouds.2 mph94%29.98 "HgN/A
11:20 PM
Sun, Aug 30
72 °FPassing clouds.5 mph88%29.98 "HgN/A
10:20 PM73 °FPassing clouds.6 mph89%29.98 "HgN/A
9:20 PM73 °FPassing clouds.7 mph89%29.98 "HgN/A
8:20 PM77 °FPartly sunny.8 mph79%29.98 "HgN/A
7:20 PM81 °FPartly sunny.8 mph74%29.98 "HgN/A
6:20 PM86 °FPartly sunny.3 mph55%29.98 "HgN/A
5:20 PM84 °FPartly sunny.5 mph62%29.98 "HgN/A
4:20 PM82 °FScattered clouds.7 mph66%30.01 "HgN/A
3:20 PM82 °FScattered clouds.6 mph62%30.01 "HgN/A
2:20 PM77 °FPartly sunny.7 mph79%30.04 "HgN/A
1:20 PM73 °FBroken clouds.8 mph83%30.04 "HgN/A
12:20 PM73 °FThundershowers. Broken clouds.6 mph83%30.07 "HgN/A
11:20 AM68 °FScattered clouds.9 mph88%30.07 "HgN/A
10:20 AM66 °FThundershowers. Broken clouds.2 mph94%30.09 "HgN/A
9:20 AM63 °FThundershowers. Broken clouds.15 mph100%30.07 "Hg4 mi
9:03 AM61 °FThunderstorms. Fog.5 mph100%30.12 "Hg1 mi
Weather by CustomWeather, © 2015

See weather overviewHow to use our weather pages